Regional Weather Roundup
Issued by NWS Green Bay, WI

Home | Current Version | Previous Version | Text Only | Print | Product List | Glossary On
Versions: 1 2 3 4 5 6 7 8 9 10 11 12 13 14 15 16 17 18 19 20 21 22 23 24 25 26 27 28 29 30 31 32 33 34 35 36 37 38 39 40 41 42 43 44 45 46 47 48 49 50
783
ASUS43 KGRB 151311
RWRGRB

NORTH-CENTRAL AND NORTHEAST WISCONSIN REGIONAL WEATHER ROUNDUP
NATIONAL WEATHER SERVICE GREEN BAY WI
700 AM CST SAT DEC 15 2018

WIZ005-009-010>012-018-019-151400-
NORTH CENTRAL WISCONSIN

CITY           SKY/WX    TMP DP  RH WIND       PRES   REMARKS
IRONWOOD       FAIR      14  12  92 CALM      30.15F
MANITOWISH WTR FAIR      10  10  98 CALM      30.17S
ARBOR VITAE    FAIR      17  15  93 CALM      30.17S
EAGLE RIVER    FAIR      12  10  92 CALM      30.18S
LAND O LAKES   FAIR      10   7  90 CALM      30.20S
RHINELANDER    FAIR      16  10  77 CALM      30.19R
PHILLIPS       FAIR      10   8  92 CALM      30.16S
ANTIGO         FAIR      22  21  94 CALM      30.21R
TOMAHAWK       FAIR       8   6  90 CALM      30.20R
MERRILL        FAIR       9   6  89 CALM      30.21R
$$

WIZ013-073-151400-
NORTHEAST WISCONSIN

CITY           SKY/WX    TMP DP  RH WIND       PRES   REMARKS
IRON MOUNTAIN  FAIR      17  13  84 CALM      30.21R
MARINETTE      FAIR      21  20  96 N7        30.23F
OCONTO         FAIR      19  17  93 CALM      30.22S
$$

WIZ017-030-035>037-045-151400-
CENTRAL WISCONSIN

CITY           SKY/WX    TMP DP  RH WIND       PRES   REMARKS
MEDFORD        FAIR      12  10  92 E5        30.18R WCI   5
WAUSAU         FAIR      15  12  88 CALM      30.20R
MOSINEE        CLEAR     21  21 100 N3        30.21S
MARSHFIELD     FAIR      19  17  92 E6        30.19R
WISC RAPIDS    FAIR      12   7  80 N5        30.22R WCI   4
STEVENS POINT  FAIR       8   7  95 CALM      30.22S
WAUPACA        FAIR      19  17  90 CALM      30.22R FOG
SHAWANO        FAIR      22  20  93 CALM      30.22R
CLINTONVILLE   FAIR      20  18  91 CALM      30.22R
WAUTOMA        FAIR      15  14  95 CALM      30.23
$$

WIZ038-039-048-051-151400-
FOX VALLEY

CITY           SKY/WX    TMP DP  RH WIND       PRES   REMARKS
NWS GREEN BAY  FAIR      23  20  88 S3        30.22R
APPLETON       CLEAR     27  18  69 VRB5      30.20R
OSHKOSH        FAIR      22  20  92 W3        30.21R
FOND DU LAC    FAIR      20  18  92 CALM      30.21S
$$

WIZ022-050-052-151400-
EAST CENTRAL WISCONSIN

CITY           SKY/WX    TMP DP  RH WIND       PRES   REMARKS
EPHRAIM        FAIR      31  26  80 NE3       30.21S
WASHINGTON ISL FAIR      20  19  95 CALM      30.22F
STURGEON BAY   FAIR      32  25  75 NE5       30.22S
MANITOWOC      FAIR      24  22  91 CALM      30.22S
SHEBOYGAN      FAIR      25  21  85 N5        30.21S
$$

LMZ563-521-522-541>543-151400-
LAKESHORE

STATION/POSITION TIME  TEMP    WIND        PRES    VSBY  WAVE
                       AIR SEA DIR/SP/G                  HT/PER
                 (UTC) (F)     (DEG/KT/KT) (MB)    (MI)  (FT/S)
SHEBOYGAN LKSHOR 1300   33     340/  6/  6 1023.7R
KEWAUNEE LKSHORE 1248   32     340/  1/  6 1022.1R
NORTHPORT PIER   1240   29        CALM     1023.4S
MENOMINEE LKSHOR 1248   29 35  310/  7/  8 1023.0F
$$




USA.gov is the U.S. government's official web portal to all federal, state and local government web resources and services.